EKRAN 2 DEB, 59987

Orbit data source: Space-Track

EKRAN 2 DEB, 59987 is space debris in GEO originally from a launch on Tue, 20 Sep 1977 UTC launched from the Tyuratam Missile And Space Complex (TTMTR). Debris objects in space refer to the collection of defunct objects orbiting the Earth. Examples of debris include non-operational satellites, rocket bodies, and fragments generated from explosions, collisions, or faulty payload assembly.

Not visible in the next 10 days
Identifier
59987, 1977-092N
Orbit
GEO
Country
Flag of CISCIS
Related business
Manufacturer
Unknown
Mission
Spacecraft
Bus & Motor
Unknown
Mass
Unknown
Launch date (UTC)
1977-09-20 (48 years ago)
Launch vehicle
Unknown
Launch site
Tyuratam Missile And Space Complex (TTMTR)
Object type
Payload
Rocket body
Debris
Shape & HBR
Unknown shape, 1.1 m
Radar Cross Section
RCS unknown

Expand to show TLE details & history
Last TLE update: 2 days ago

TLE from 2 days ago
0 EKRAN 2 DEB
1 59987U 77092N   25305.86572273 -.00000316  00000-0  00000-0 0  9999
2 59987   4.7138 277.0523 0013587 225.7979 344.0741  1.00255113 60832
Epoch: 2025-11-01T20:46Z
TLE epoch observation values (Epoch: 2025-11-01T20:46:38.443Z)
Latitude
-2.36453°
Longitude
133.70777°
Altitude
35,736.28 km
Speed
3.079 km/s
True Right ascension
08h 27m 01s
True Declination
-2° 21' 44"
Sunlit
Object was in daylight at epoch
Visualization orbit readout
Latitude
Unknown
Longitude
Unknown
Altitude
Unknown
Speed
Unknown
Apparent Right ascension
Unknown
Apparent Declination
Unknown
Sunlit
N/A
Visualization observer readout
Local Sidereal Time
21:09:09
Azimuth
Unknown
Elevation
Unknown
Doppler factor
Unknown
Orbital elements
Apogee altitude
35,849.626 km
Perigee altitude
35,735.032 km
Semi-major axis
42,170.466 km
Eccentricity
0.00136
Inclination
4.7138°
RAAN
277.0523°
Arg. of periapsis
225.7979°
True anomaly
344.03131°
Mean anomaly
344.0741°
Eccentric anomaly
344.05271°
Mean motion
0.25063 °/min
Orbital period
1,436.39 mins
BSTAR
0
Loading maneuver chart data...
Computing Atmospheric mass density...
Loading historical data...
Loading historical data...
Loading historical data...
Loading historical data...
Loading historical data...
Loading historical data...
Loading historical data...

Documentation

Showing up to 5 results
|